EW3693 Weather Reports


time (UTC)temp
F
wind
direction
speed
knots
gust
knots
rain 1hr
in
rain 24hr
in
rain mn
in
humidity
%
barometer
mb
20260507175025 56 113 1.7 5.2 0.00 0.00 0.00 53 1017.9
20260507174025 56 90 2.6 7.8 0.00 0.00 0.00 53 1017.7
20260507173025 57 90 2.6 7.0 0.00 0.00 0.00 51 1017.7
20260507172025 56 90 4.3 8.7 0.00 0.00 0.00 51 1017.6
20260507171025 57 90 4.3 7.0 0.00 0.00 0.00 51 1017.5
20260507170025 57 90 4.3 8.7 0.00 0.00 0.00 51 1017.5
20260507165025 57 90 5.2 9.6 0.00 0.00 0.00 50 1017.4
20260507164025 57 90 5.2 11.3 0.00 0.00 0.00 51 1017.4
20260507163025 58 90 3.5 7.8 0.00 0.00 0.00 50 1017.3
20260507162025 58 90 4.3 9.6 0.00 0.00 0.00 50 1017.3
20260507161025 58 90 4.3 7.8 0.00 0.00 0.00 48 1017.3
20260507160024 58 90 6.1 12.2 0.00 0.00 0.00 49 1017.3
20260507155045 59 68 5.2 11.3 0.00 0.00 0.00 49 1017.2
20260507154025 59 113 3.5 7.8 0.00 0.00 0.00 49 1017.2
20260507153024 59 68 6.1 10.4 0.00 0.00 0.00 48 1017.1
20260507152024 59 90 6.1 10.4 0.00 0.00 0.00 49 1017.0
20260507151024 59 90 7.0 9.6 0.00 0.00 0.00 49 1017.0
20260507150025 60 90 6.1 9.6 0.00 0.00 0.00 49 1016.9
20260507145025 60 90 6.1 11.3 0.00 0.00 0.00 50 1016.9
20260507144024 59 90 5.2 12.2 0.00 0.00 0.00 50 1016.9
20260507143025 60 68 4.3 9.6 0.00 0.00 0.00 51 1016.9
20260507142025 60 113 5.2 9.6 0.00 0.00 0.00 49 1017.0
20260507141025 60 90 6.1 13.9 0.00 0.00 0.00 51 1016.9
20260507140104 59 68 5.2 12.2 0.00 0.00 0.00 53 1017.0
20260507135045 60 90 5.2 11.3 0.00 0.00 0.00 51 1016.9
20260507134024 60 90 7.8 13.0 0.00 0.00 0.00 52 1017.0
20260507133024 59 90 8.7 12.2 0.00 0.00 0.00 51 1017.0
20260507132024 59 90 7.8 14.8 0.00 0.00 0.00 51 1016.9
20260507131024 60 90 4.3 8.7 0.00 0.00 0.00 52 1016.8
20260507130024 60 90 5.2 10.4 0.00 0.00 0.00 53 1016.7
20260507125025 59 90 7.8 13.9 0.00 0.00 0.00 52 1016.7
20260507124024 59 68 5.2 12.2 0.00 0.00 0.00 56 1016.7
20260507123044 60 90 2.6 9.6 0.00 0.00 0.00 57 1016.6
20260507122044 58 68 4.3 10.4 0.00 0.00 0.00 58 1016.5
20260507121024 58 90 6.1 11.3 0.00 0.00 0.00 58 1016.5
20260507120025 60 90 3.5 9.6 0.00 0.00 0.00 57 1016.5
20260507115024 59 68 7.8 13.0 0.00 0.00 0.00 55 1016.4
20260507114044 59 68 7.0 13.0 0.00 0.00 0.00 54 1016.5
20260507113024 59 68 4.3 10.4 0.00 0.00 0.00 58 1016.6
20260507112024 57 90 4.3 11.3 0.00 0.00 0.00 59 1016.5
20260507111024 58 90 4.3 7.8 0.00 0.00 0.00 59 1016.4
20260507110024 57 90 6.1 11.3 0.00 0.00 0.00 61 1016.4
20260507105024 57 23 3.5 9.6 0.00 0.00 0.00 63 1016.5
20260507104024 57 90 4.3 11.3 0.00 0.00 0.00 62 1016.4
20260507103024 57 113 5.2 10.4 0.00 0.00 0.00 59 1016.3
20260507102024 57 68 6.1 13.9 0.00 0.00 0.00 60 1016.4
20260507101024 57 45 3.5 9.6 0.00 0.00 0.00 63 1016.3
20260507100024 55 90 7.0 12.2 0.00 0.00 0.00 62 1016.2
20260507095024 55 68 6.1 10.4 0.00 0.00 0.00 64 1016.1
20260507094024 55 68 5.2 10.4 0.00 0.00 0.00 68 1016.2
20260507093024 54 68 2.6 9.6 0.00 0.00 0.00 68 1016.1
20260507092024 54 45 3.5 8.7 0.00 0.00 0.00 70 1016.1
20260507091024 55 68 4.3 9.6 0.00 0.00 0.00 67 1016.0
20260507090024 53 68 6.1 12.2 0.00 0.00 0.00 70 1015.9
20260507085024 52 68 3.5 11.3 0.00 0.00 0.00 74 1016.0
20260507084044 53 68 3.5 10.4 0.00 0.00 0.00 75 1016.0
20260507083044 52 68 4.3 11.3 0.00 0.00 0.00 74 1015.9
20260507082044 52 90 5.2 12.2 0.00 0.00 0.00 73 1015.8
20260507081044 53 68 3.5 8.7 0.00 0.00 0.00 76 1015.8
20260507080024 51 68 5.2 12.2 0.00 0.00 0.00 75 1015.8
20260507075026 50 45 6.1 12.2 0.00 0.00 0.00 77 1015.7
20260507074026 50 68 6.1 11.3 0.00 0.00 0.00 77 1015.4
20260507073026 49 90 5.2 10.4 0.00 0.00 0.00 79 1015.4
20260507072026 48 90 6.1 10.4 0.00 0.00 0.00 79 1015.3
20260507071046 48 90 7.0 13.9 0.00 0.00 0.00 79 1015.2
20260507070026 48 68 7.0 11.3 0.00 0.00 0.00 80 1015.3
20260507065046 48 90 7.0 13.9 0.00 0.00 0.00 80 1015.3
20260507064026 48 90 4.3 11.3 0.00 0.00 0.00 82 1015.1
20260507063026 48 68 5.2 11.3 0.00 0.00 0.00 82 1014.9
20260507062026 48 68 6.1 9.6 0.00 0.00 0.00 82 1014.7
20260507061146 48 90 3.5 8.7 0.00 0.00 0.00 84 1014.7
20260507060026 46 68 3.5 8.7 0.00 0.00 0.00 87 1014.7
20260507055026 45 68 4.3 9.6 0.00 0.00 0.00 88 1014.5
20260507054026 45 68 3.5 8.7 0.00 0.00 0.00 88 1014.5
20260507053026 45 68 3.5 10.4 0.00 0.00 0.00 88 1014.3
20260507052026 45 68 5.2 11.3 0.00 0.00 0.00 88 1014.3
20260507051046 45 68 3.5 11.3 0.00 0.00 0.00 89 1014.1
20260507050026 45 68 2.6 7.8 0.00 0.00 0.00 89 1014.1
20260507045026 45 68 4.3 9.6 0.00 0.00 0.00 89 1013.9
20260507044026 45 68 2.6 6.1 0.00 0.00 0.00 89 1013.8
20260507043026 45 68 3.5 7.0 0.00 0.00 0.00 89 1013.6
20260507042026 45 68 3.5 8.7 0.00 0.00 0.00 89 1013.6
20260507041026 45 68 3.5 9.6 0.00 0.00 0.00 89 1013.5
20260507040025 45 68 4.3 10.4 0.00 0.00 0.00 89 1013.4
20260507035026 45 68 4.3 10.4 0.00 0.00 0.00 88 1013.4
20260507034025 45 68 4.3 8.7 0.00 0.00 0.00 88 1013.3
20260507033025 45 68 3.5 7.8 0.00 0.00 0.00 88 1013.3
20260507032025 45 68 2.6 7.0 0.00 0.00 0.00 88 1013.2
20260507031026 45 45 4.3 8.7 0.00 0.00 0.00 88 1013.1
20260507030025 45 68 3.5 9.6 0.00 0.00 0.00 88 1013.0
20260507025026 45 68 3.5 9.6 0.00 0.00 0.00 88 1013.0
20260507024025 45 68 1.7 7.8 0.00 0.00 0.00 87 1012.9
20260507023046 45 68 3.5 8.7 0.00 0.00 0.00 87 1012.8
20260507022045 45 68 4.3 8.7 0.00 0.00 0.00 87 1012.7
20260507021025 45 68 6.1 12.2 0.00 0.00 0.00 87 1012.7
20260507020026 45 68 5.2 10.4 0.00 0.00 0.00 87 1012.7
20260507015025 45 90 4.3 10.4 0.00 0.00 0.00 87 1012.6
20260507014025 45 68 4.3 11.3 0.00 0.00 0.00 86 1012.6
20260507013025 45 68 3.5 7.0 0.00 0.00 0.00 86 1012.4
20260507012025 45 90 2.6 8.7 0.00 0.00 0.00 86 1012.4
20260507011025 45 90 4.3 8.7 0.00 0.00 0.00 86 1012.4
20260507010025 45 90 7.0 13.0 0.00 0.00 0.00 86 1012.4
20260507005025 45 68 6.1 12.2 0.00 0.00 0.00 86 1012.3
20260507004125 45 68 7.0 13.9 0.00 0.00 0.00 86 1012.3
20260507003045 45 68 7.8 13.9 0.00 0.00 0.00 86 1012.3
20260507002025 45 68 6.1 12.2 0.00 0.00 0.00 87 1012.2
20260507001025 45 68 4.3 8.7 0.00 0.00 0.00 87 1012.2
20260507000025 45 68 3.5 12.2 0.00 0.00 0.00 87 1012.2
20260506235025 45 68 6.1 12.2 0.00 0.00 0.00 87 1012.2
20260506234025 46 68 6.1 11.3 0.00 0.00 0.00 87 1012.1
20260506233025 46 90 3.5 7.8 0.00 0.00 0.00 88 1012.2
20260506232025 46 68 4.3 10.4 0.00 0.00 0.00 88 1012.1
20260506231045 46 68 6.1 10.4 0.00 0.00 0.00 88 1012.0
20260506230025 46 68 4.3 8.7 0.00 0.00 0.00 88 1012.0
20260506225026 46 68 6.1 12.2 0.00 0.00 0.00 88 1012.0
20260506224025 46 68 7.0 12.2 0.00 0.00 0.00 88 1011.9
20260506223025 46 68 7.0 13.9 0.00 0.00 0.00 89 1011.7
20260506222025 46 68 7.8 13.9 0.00 0.00 0.00 89 1011.6
20260506221025 46 68 7.0 13.9 0.00 0.00 0.00 89 1011.6
20260506220025 46 68 6.1 14.8 0.00 0.00 0.00 89 1011.6
20260506215025 46 68 3.5 9.6 0.00 0.00 0.00 90 1011.5
20260506214025 46 68 2.6 7.8 0.00 0.00 0.00 89 1011.4
20260506213025 46 68 3.5 7.8 0.00 0.00 0.00 89 1011.3
20260506212045 46 68 7.0 13.9 0.00 0.00 0.00 89 1011.3
20260506211025 46 68 7.0 12.2 0.00 0.00 0.00 89 1011.3
20260506210025 46 68 7.8 13.0 0.00 0.00 0.00 89 1011.2
20260506205025 47 68 7.0 12.2 0.00 0.00 0.00 89 1011.2
20260506204025 47 68 6.1 12.2 0.00 0.00 0.00 89 1011.1
20260506203025 47 68 6.1 12.2 0.00 0.00 0.00 89 1011.1
20260506202025 47 68 6.1 11.3 0.00 0.00 0.00 89 1011.1
20260506201025 47 68 6.1 11.3 0.00 0.00 0.00 89 1011.0
20260506200045 47 68 5.2 10.4 0.00 0.00 0.00 89 1011.0
20260506195024 47 68 5.2 11.3 0.00 0.00 0.00 88 1011.0
20260506194024 48 68 7.0 13.9 0.00 0.00 0.00 88 1010.8
20260506193024 48 68 6.1 13.9 0.00 0.00 0.00 88 1010.7
20260506192024 49 68 3.5 10.4 0.00 0.00 0.00 88 1010.5
20260506191025 49 68 5.2 11.3 0.00 0.00 0.00 87 1010.4
20260506190024 49 68 5.2 13.0 0.00 0.00 0.00 86 1010.3
20260506185024 49 68 6.1 13.0 0.00 0.00 0.00 86 1010.0
20260506184024 49 68 7.0 15.6 0.00 0.00 0.00 85 1009.9
20260506183044 50 90 5.2 11.3 0.00 0.00 0.00 83 1009.9
20260506182025 50 68 6.1 14.8 0.00 0.00 0.00 82 1009.8
20260506181025 51 68 6.1 10.4 0.00 0.00 0.00 81 1009.7
20260506180025 51 68 5.2 8.7 0.00 0.00 0.00 81 1009.7